This is the latest recevied weather packets stored in our database for station/object 9M4RBN-3. If no packets are shown the sender has not sent any weather packets the latest 10 day(s).
| Time | Temp. | Humidity | Pressure | Rain* | Wind** | Luminosity | Snow |
|---|---|---|---|---|---|---|---|
| 1778080903 | 25.56° C | 44% | 1014.6 hPa | - | - | - | - |
| 1778080002 | 25.56° C | 43% | 1014.6 hPa | - | - | - | - |
| 1778079102 | 25.56° C | 44% | 1014.7 hPa | - | - | - | - |
| 1778078204 | 25.56° C | 44% | 1014.7 hPa | - | - | - | - |
| 1778077304 | 25.56° C | 44% | 1014.5 hPa | - | - | - | - |
| 1778076404 | 26.11° C | 44% | 1014.5 hPa | - | - | - | - |
| 1778075504 | 26.11° C | 43% | 1014.5 hPa | - | - | - | - |
| 1778074604 | 26.11° C | 44% | 1014.1 hPa | - | - | - | - |
| 1778073704 | 26.11° C | 43% | 1014 hPa | - | - | - | - |
| 1778072804 | 26.11° C | 43% | 1014.3 hPa | - | - | - | - |
| 1778071904 | 26.11° C | 43% | 1014 hPa | - | - | - | - |
| 1778071004 | 26.11° C | 44% | 1014.2 hPa | - | - | - | - |
| 1778070103 | 26.11° C | 45% | 1013.8 hPa | - | - | - | - |
| 1778069203 | 26.67° C | 45% | 1013.6 hPa | - | - | - | - |
| 1778068303 | 26.11° C | 45% | 1013.2 hPa | - | - | - | - |
| 1778067403 | 26.67° C | 46% | 1013.3 hPa | - | - | - | - |
| 1778066503 | 26.11° C | 47% | 1012.8 hPa | - | - | - | - |
| 1778065603 | 26.11° C | 52% | 1012.7 hPa | - | - | - | - |
| 1778064703 | 26.11° C | 52% | 1012.3 hPa | - | - | - | - |
| 1778063803 | 26.11° C | 40% | 1012.5 hPa | - | - | - | - |
| 1778062903 | 26.67° C | 45% | 1012 hPa | - | - | - | - |
| 1778062003 | 26.67° C | 60% | 1011.8 hPa | - | - | - | - |
| 1778061103 | 26.11° C | 50% | 1012 hPa | - | - | - | - |
| 1778060203 | 26.67° C | 38% | 1011.6 hPa | - | - | - | - |
| 1778059303 | 26.67° C | 40% | 1011.3 hPa | - | - | - | - |
* Rain since midnight (hover to see other rain measurements)
** Current wind speed in m/s (hover to see current wind gust speed)